Fort Collins, CO

2:29 AM MDT on March 29, 2017 (GMT -0600)
Fort Collins-Loveland Municipal

Weather History for KFNL - November, 2011

Change the Weather History Date:

Saturday, November 12, 2011

  Actual Average Record
Temperature  
Mean Temperature 48 °F -  
Max Temperature 62 °F - 68 °F (1999)
Min Temperature 35 °F - -5 °F (2014)
Degree Days  
Heating Degree Days 16    
Month to date heating degree days  
Cooling Degree Days 0    
Month to date cooling degree days  
Moisture  
Dew Point 22 °F    
Average Humidity 39    
Maximum Humidity 75    
Minimum Humidity 22    
Precipitation  
Precipitation 0.00 in - 0.04 in (2010)
Sea Level Pressure  
Sea Level Pressure 29.53 in    
Wind  
Wind Speed 10 mph (WSW)    
Max Wind Speed 29 mph    
Max Gust Speed 41 mph    
Visibility 10 miles    
Events      
T = Trace of Precipitation, MM = Missing Value Source: NWS Daily Summary

Daily Weather History Graph

Daily Weather History Graph

Search for Another Location

Airport or City:

Trip Planner

Search our weather history database for the weather conditions in past years. The results will help you decide how hot, cold, wet, or windy it might be!

Date:

Astronomy

Nov. 12, 2011 Rise Set
Actual Time 6:42 AM MST 4:45 PM MST
Civil Twilight 6:13 AM MST 5:14 PM MST
Nautical Twilight 5:40 AM MST 5:47 PM MST
Astronomical Twilight 5:08 AM MST 6:19 PM MST
Moon 6:03 PM MST (11/12) 8:27 AM MST (11/12)
Length of Visible Light 11h 00m
Length of Day
10h 02m
Waning Gibbous, 97% of the Moon is Illuminated
Nov 12
Waning Gibbous
Nov 18
Last Quarter
Nov 24
New
Dec 2
First Quarter
Dec 10
Full

Hourly Weather History & Observations

Time (MST) Temp. Windchill Dew Point Humidity Pressure Visibility Wind Dir Wind Speed Gust Speed Precip Events Conditions
12:15 AM 39.2 °F 35.9 °F 19.4 °F 45% 29.64 in 10.0 mi North 4.6 mph - N/A   Clear
12:35 AM 37.4 °F 29.8 °F 19.4 °F 48% 29.63 in 10.0 mi North 11.5 mph - N/A   Clear
12:55 AM 35.6 °F 28.6 °F 23.0 °F 60% 29.62 in 10.0 mi North 9.2 mph - N/A   Clear
1:35 AM 44.6 °F 39.2 °F 15.8 °F 31% 29.60 in 10.0 mi WNW 10.4 mph - N/A   Clear
1:55 AM 42.8 °F 38.0 °F 17.6 °F 36% 29.60 in 10.0 mi ESE 8.1 mph - N/A   Clear
2:15 AM 39.2 °F 34.2 °F 17.6 °F 42% 29.59 in 10.0 mi NE 6.9 mph - N/A   Clear
2:55 AM 42.8 °F 39.3 °F 17.6 °F 36% 29.59 in 10.0 mi SW 5.8 mph - N/A   Clear
3:15 AM 44.6 °F 41.4 °F 15.8 °F 31% 29.57 in 10.0 mi North 5.8 mph - N/A   Clear
3:35 AM 46.4 °F 43.5 °F 17.6 °F 32% 29.58 in 10.0 mi NW 5.8 mph - N/A   Clear
3:55 AM 37.4 °F 32.1 °F 17.6 °F 45% 29.59 in 10.0 mi SSE 6.9 mph - N/A   Clear
4:15 AM 48.2 °F - 15.8 °F 27% 29.58 in 10.0 mi North 4.6 mph - N/A   Clear
4:55 AM 46.4 °F 41.1 °F 19.4 °F 34% 29.56 in 10.0 mi West 11.5 mph - N/A   Clear
5:15 AM 46.4 °F 41.9 °F 17.6 °F 32% 29.55 in 10.0 mi West 9.2 mph - N/A   Clear
5:35 AM 39.2 °F 31.6 °F 17.6 °F 42% 29.56 in 10.0 mi SSE 12.7 mph - N/A   Clear
5:55 AM 39.2 °F 33.0 °F 14.0 °F 36% 29.55 in 10.0 mi South 9.2 mph - N/A   Clear
6:15 AM 37.4 °F 29.8 °F 15.8 °F 41% 29.55 in 10.0 mi South 11.5 mph - N/A   Clear
6:35 AM 39.2 °F 30.2 °F 15.8 °F 39% 29.54 in 10.0 mi SSW 17.3 mph 27.6 mph N/A   Clear
7:15 AM 44.6 °F 42.2 °F 15.8 °F 31% 29.55 in 10.0 mi South 4.6 mph - N/A   Clear
7:35 AM 42.8 °F 38.0 °F 17.6 °F 36% 29.54 in 10.0 mi South 8.1 mph - N/A   Clear
8:15 AM 42.8 °F 37.0 °F 21.2 °F 42% 29.55 in 10.0 mi SSE 10.4 mph - N/A   Clear
8:35 AM 44.6 °F 39.7 °F 23.0 °F 43% 29.56 in 10.0 mi ESE 9.2 mph - N/A   Clear
9:15 AM 50.0 °F - 19.4 °F 30% 29.56 in 10.0 mi South 5.8 mph - N/A   Clear
9:35 AM 51.8 °F - 21.2 °F 30% 29.56 in 10.0 mi ESE 9.2 mph - N/A   Clear
9:55 AM 53.6 °F - 21.2 °F 28% 29.56 in 10.0 mi East 10.4 mph - N/A   Clear
10:35 AM 57.2 °F - 21.2 °F 25% 29.55 in 10.0 mi Calm Calm - N/A   Clear
10:55 AM 59.0 °F - 21.2 °F 23% 29.53 in 10.0 mi SSE 6.9 mph - N/A   Clear
11:15 AM 60.8 °F - 24.8 °F 25% 29.52 in 10.0 mi South 8.1 mph 23.0 mph N/A   Clear
11:35 AM 60.8 °F - 21.2 °F 22% 29.53 in 10.0 mi West 11.5 mph 23.0 mph N/A   Clear
11:56 AM 59.0 °F - 24.8 °F 27% 29.53 in 10.0 mi West 25.3 mph 36.8 mph N/A   Clear
12:35 PM 60.8 °F - 24.8 °F 25% 29.50 in 10.0 mi WSW 28.8 mph 33.4 mph N/A   Clear
1:15 PM 57.2 °F - 21.2 °F 25% 29.49 in 10.0 mi WNW 10.4 mph 20.7 mph N/A   Clear
1:35 PM 60.8 °F - 24.8 °F 25% 29.49 in 10.0 mi WNW 9.2 mph 27.6 mph N/A   Clear
1:55 PM 60.8 °F - 23.0 °F 23% 29.49 in 10.0 mi West 10.4 mph 26.5 mph N/A   Clear
2:15 PM 62.6 °F - 24.8 °F 24% 29.49 in 10.0 mi South 8.1 mph - N/A   Clear
2:35 PM 60.8 °F - 21.2 °F 22% 29.48 in 10.0 mi SW 19.6 mph 41.4 mph N/A   Clear
4:15 PM 53.6 °F - 24.8 °F 33% 29.48 in 10.0 mi SW 16.1 mph 24.2 mph N/A   Clear
4:35 PM 51.8 °F - 26.6 °F 38% 29.48 in 10.0 mi SW 16.1 mph 25.3 mph N/A   Clear
6:16 PM 48.2 °F - 24.8 °F 40% 29.49 in 10.0 mi WSW 13.8 mph 19.6 mph N/A   Clear
6:35 PM 48.2 °F - 24.8 °F 40% 29.47 in 10.0 mi SW 21.9 mph 28.8 mph N/A   Clear
6:55 PM 46.4 °F 37.9 °F 26.6 °F 46% 29.47 in 10.0 mi WSW 25.3 mph 39.1 mph N/A   Clear
7:15 PM 46.4 °F 39.5 °F 26.6 °F 46% 29.49 in 10.0 mi West 17.3 mph - N/A   Clear
7:55 PM 44.6 °F 39.7 °F 28.4 °F 53% 29.50 in 10.0 mi West 9.2 mph - N/A   Mostly Cloudy
8:15 PM 46.4 °F 42.4 °F 26.6 °F 46% 29.48 in 10.0 mi SW 8.1 mph 20.7 mph N/A   Mostly Cloudy
8:55 PM 46.4 °F 40.7 °F 28.4 °F 50% 29.48 in 10.0 mi SW 12.7 mph 16.1 mph N/A   Overcast
9:15 PM 41.0 °F 31.1 °F 30.2 °F 65% 29.49 in 10.0 mi North 23.0 mph 28.8 mph N/A   Overcast
9:35 PM 37.4 °F 27.5 °F 30.2 °F 75% 29.49 in 10.0 mi North 18.4 mph - N/A   Overcast
9:55 PM 37.4 °F 28.5 °F 28.4 °F 70% 29.49 in 10.0 mi North 15.0 mph - N/A   Overcast
10:15 PM 39.2 °F 29.0 °F 26.6 °F 61% 29.47 in 10.0 mi NNE 21.9 mph - N/A   Overcast
10:35 PM 37.4 °F 28.5 °F 24.8 °F 60% 29.46 in 10.0 mi NNE 15.0 mph - N/A   Overcast
10:55 PM 37.4 °F 31.4 °F 23.0 °F 56% 29.47 in 10.0 mi North 8.1 mph 18.4 mph N/A   Scattered Clouds
11:35 PM 37.4 °F 30.3 °F 23.0 °F 56% 29.44 in 10.0 mi North 10.4 mph - N/A   Clear
11:55 PM 39.2 °F 34.2 °F 23.0 °F 52% 29.44 in 10.0 mi NNE 6.9 mph 23.0 mph N/A   Clear